Location: Spring Creek
(38.2870°N, 100.2160°W)
Time: 07:56:58
(UTC+00:00)

SL-08 R/B - Pass Details

Date: 08 May 2021
Orbit: 674 x 739 km, 98.5° (Epoch: 21 June)

Event Time Altitude Azimuth Distance (km) Brightness Sun altitude
Rises 09:45:36 0° 157° (SSE) 3,096 6.5 -19.1°
Reaches altitude 10° 09:47:53 10° 155° (SSE) 2,171 5.7 -18.8°
Maximum altitude 09:52:34 64° 74° (ENE) 775 3.7 -18.1°
Drops below altitude 10° 09:57:13 10° 354° (N) 2,146 6.3 -17.4°
Sets 09:59:27 0° 351° (N) 3,058 7.1 -17.1°
